Purki — 9HA2386 — position and weather

sailwx.info

Track history (hours):
 
Tides and Currents Weather Stations Pressure Air Temp Water Temp Dewpoint Dewpoint Depression Visibility Wind Speed Wind Dir Waves Ship Positions

Purki

Last reported at 2016-Jul-01 17:26 UTC. Time now 2016-Jul-01 19:05 UTC.
Position N 36°46' E 003°07'.

Length 146 m; draft 8.4 m.

Type: Cargo ship. MMSI: 248495000.

Date/timePositionNaut miles runAvg speedWind from/ knotsBaromVisibWave heightAir tempDewpointWater temp
2016-Jul-01 17:26N 36°46' E 003°07'0 0.0
2016-Jul-01 13:20N 36°46' E 003°07'0 0.0
2016-Jul-01 12:32N 36°46' E 003°07'0 0.0
2016-Jul-01 11:23N 36°46' E 003°07'0 0.0
2016-Jul-01 07:08N 36°46' E 003°07'0 0.0
2016-Jul-01 06:26N 36°46' E 003°07'0 0.0
2016-Jul-01 03:32N 36°46' E 003°07'0 0.0
2016-Jul-01 02:11N 36°46' E 003°07'0 0.1
2016-Jul-01 01:32N 36°46' E 003°07'0 0.1
2016-Jul-01 00:32N 36°46' E 003°07'0 0.0
2016-Jun-30 23:33N 36°46' E 003°07'5 5.4
2016-Jun-30 22:33N 36°51' E 003°05'1010.1
2016-Jun-30 21:33N 36°59' E 002°57'9 8.6
2016-Jun-30 20:33N 37°04' E 002°48'1211.7
2016-Jun-30 19:33N 37°12' E 002°38'1211.6
2016-Jun-30 18:33N 37°20' E 002°27'1211.7
2016-Jun-30 17:33N 37°29' E 002°17'1411.8
2016-Jun-30 16:22N 37°39' E 002°04'1012.0
2016-Jun-30 15:33N 37°46' E 001°56'1211.8
2016-Jun-30 14:32N 37°55' E 001°46'1111.6
2016-Jun-30 13:33N 38°03' E 001°36'1211.7
2016-Jun-30 12:31N 38°12' E 001°25'1111.7
2016-Jun-30 11:33N 38°20' E 001°15'1111.6
2016-Jun-30 10:33N 38°28' E 001°05'1411.4
2016-Jun-30 09:18N 38°39' E 000°53'911.2
2016-Jun-30 08:32N 38°44' E 000°44'1111.5
2016-Jun-30 07:33N 38°52' E 000°34'4711.5
2016-Jun-30 03:29N 39°22' W 000°13'7 7.9
2016-Jun-30 02:33N 39°27' W 000°19'0 0.0
2016-Jun-30 01:18N 39°27' W 000°19'0 0.0
2016-Jun-30 00:33N 39°27' W 000°19'0 0.0
2016-Jun-29 23:34N 39°27' W 000°19'0 0.0
2016-Jun-29 22:33N 39°27' W 000°19'0 0.0
2016-Jun-29 21:33N 39°27' W 000°19'0 0.0
2016-Jun-29 20:33N 39°27' W 000°19'0 0.0
2016-Jun-29 19:33N 39°27' W 000°19'0 0.0
2016-Jun-29 18:33N 39°27' W 000°19'0 0.0
2016-Jun-29 17:32N 39°27' W 000°19'0 0.0
2016-Jun-29 16:33N 39°27' W 000°19'0 0.0
2016-Jun-29 15:33N 39°27' W 000°19'0 0.0
2016-Jun-29 14:34N 39°27' W 000°19'0 0.0
2016-Jun-29 13:33N 39°27' W 000°19'1 1.2
2016-Jun-29 12:33N 39°26' W 000°19'13 3.2
2016-Jun-29 08:32N 39°27' W 000°02'4 3.2
2016-Jun-29 07:25N 39°30' W 000°00'1012.0
2016-Jun-29 06:34N 39°38' E 000°08'1211.9
2016-Jun-29 05:34N 39°47' E 000°17'1211.8
2016-Jun-29 04:33N 39°57' E 000°27'1211.8
2016-Jun-29 03:33N 40°05' E 000°38'1211.8
2016-Jun-29 02:33N 40°13' E 000°49'1411.9
2016-Jun-29 01:24N 40°22' E 001°03'1012.1
2016-Jun-29 00:33N 40°29' E 001°13'1212.3
2016-Jun-28 23:33N 40°37' E 001°26'1212.5
2016-Jun-28 22:33N 40°44' E 001°38'1312.7
2016-Jun-28 21:33N 40°53' E 001°51'1312.8
2016-Jun-28 20:33N 41°02' E 002°03'1212.3
2016-Jun-28 19:33N 41°13' E 002°10'9 1.8
2016-Jun-28 14:33N 41°21' E 002°10'0 0.0
2016-Jun-28 13:33N 41°21' E 002°10'0 0.0
2016-Jun-28 11:33N 41°21' E 002°10'0 0.0
2016-Jun-28 07:33N 41°21' E 002°10'5 4.6
2016-Jun-28 06:33N 41°17' E 002°13'16 7.3
2016-Jun-28 04:21N 41°20' E 002°34'1012.1
2016-Jun-28 03:32N 41°25' E 002°45'1212.1
2016-Jun-28 02:33N 41°31' E 002°59'3612.1
2016-Jun-27 23:33N 41°48' E 003°42'2411.7
2016-Jun-27 21:32N 41°59' E 004°10'1211.6
2016-Jun-27 20:31N 42°04' E 004°24'14111.3
2016-Jun-27 08:05N 43°15' E 007°09'712.3
2016-Jun-27 07:32N 43°19' E 007°16'1312.7
2016-Jun-27 06:33N 43°27' E 007°30'4513.3
2016-Jun-27 03:10N 43°55' E 008°19'813.3
2016-Jun-27 02:33N 44°00' E 008°27'1313.0
2016-Jun-27 01:33N 44°10' E 008°40'1312.8
2016-Jun-27 00:33N 44°18' E 008°54'6 6.3
2016-Jun-26 23:33N 44°24' E 008°53'0 0.1
2016-Jun-26 22:31N 44°24' E 008°53'0 0.0
2016-Jun-26 21:28N 44°24' E 008°53'0 0.0
2016-Jun-26 20:31N 44°24' E 008°53'0 0.0
2016-Jun-26 19:31N 44°24' E 008°53'0 0.0
2016-Jun-26 18:31N 44°24' E 008°53'0 0.0
2016-Jun-26 17:31N 44°24' E 008°53'0 0.0
2016-Jun-26 16:31N 44°24' E 008°53'0 0.0
2016-Jun-26 15:31N 44°24' E 008°53'0 0.0
2016-Jun-26 14:31N 44°24' E 008°53'0 0.0
2016-Jun-26 13:31N 44°24' E 008°53'0 0.0
2016-Jun-26 12:31N 44°24' E 008°53'0 0.0
2016-Jun-26 11:31N 44°24' E 008°53'0 0.0
2016-Jun-26 10:31N 44°24' E 008°53'0 0.0
2016-Jun-26 09:31N 44°24' E 008°53'4 4.3
2016-Jun-26 08:34N 44°22' E 008°58'4 4.5
2016-Jun-26 07:33N 44°18' E 009°02'4 3.7
2016-Jun-26 06:33N 44°20' E 008°57'1 0.7
2016-Jun-26 05:34N 44°20' E 008°58'0 0.4
2016-Jun-26 04:34N 44°20' E 008°57'0 0.4
2016-Jun-26 03:32N 44°19' E 008°57'0 0.5
2016-Jun-26 02:33N 44°19' E 008°57'1 0.6
2016-Jun-26 01:33N 44°18' E 008°57'1 0.6
2016-Jun-26 00:33N 44°18' E 008°58'1 0.9
2016-Jun-25 23:33N 44°17' E 008°59'1010.4
2016-Jun-25 22:33N 44°09' E 009°06'1312.9
2016-Jun-25 21:33N 43°57' E 009°14'1212.3
2016-Jun-25 20:33N 43°49' E 009°26'1212.3
2016-Jun-25 19:33N 43°40' E 009°39'1212.2
2016-Jun-25 18:33N 43°33' E 009°52'1111.5
2016-Jun-25 17:33N 43°30' E 010°08'9 8.6
2016-Jun-25 16:33N 43°34' E 010°18'0 0.0
2016-Jun-25 15:34N 43°34' E 010°18'0 0.0
2016-Jun-25 14:33N 43°34' E 010°18'0 0.0
2016-Jun-25 13:33N 43°34' E 010°18'0 0.0
2016-Jun-25 12:33N 43°34' E 010°18'0 0.0
2016-Jun-25 11:30N 43°34' E 010°18'0 0.0
2016-Jun-25 10:33N 43°34' E 010°18'1 0.6
2016-Jun-25 09:33N 43°34' E 010°18'7 6.9
2016-Jun-25 08:34N 43°28' E 010°12'1 1.3
2016-Jun-25 07:33N 43°27' E 010°11'6 6.5
2016-Jun-25 06:34N 43°23' E 010°04'1212.3
2016-Jun-25 05:33N 43°17' E 009°49'1313.0
2016-Jun-25 04:34N 43°13' E 009°32'1313.0
2016-Jun-25 03:34N 43°10' E 009°15'1413.6
2016-Jun-25 02:34N 43°00' E 009°02'1413.7
2016-Jun-25 01:34N 42°51' E 008°48'1413.8
2016-Jun-25 00:33N 42°41' E 008°35'1413.8
2016-Jun-24 23:31N 42°30' E 008°23'1513.4
2016-Jun-24 22:24N 42°18' E 008°11'1313.2
2016-Jun-24 21:24N 42°07' E 008°00'1212.9
2016-Jun-24 20:29N 41°58' E 007°51'1212.8
2016-Jun-24 19:33N 41°48' E 007°42'1312.8
2016-Jun-24 18:32N 41°37' E 007°32'1312.7
2016-Jun-24 17:32N 41°27' E 007°22'1212.6
2016-Jun-24 16:34N 41°16' E 007°13'1413.0
2016-Jun-24 15:29N 41°05' E 007°03'1613.0
2016-Jun-24 14:17N 40°52' E 006°51'2513.2
2016-Jun-24 12:24N 40°32' E 006°32'2513.1
2016-Jun-24 10:28N 40°12' E 006°12'1613.0
2016-Jun-24 09:15N 39°59' E 005°60'912.6
2016-Jun-24 08:33N 39°52' E 005°53'1312.8
2016-Jun-24 07:31N 39°41' E 005°44'7713.0
2016-Jun-24 01:33N 38°38' E 004°46'1313.0
2016-Jun-24 00:34N 38°28' E 004°35'1313.3
2016-Jun-23 23:33N 38°17' E 004°25'5112.7
2016-Jun-23 19:33N 37°36' E 003°48'1312.6
2016-Jun-23 18:33N 37°25' E 003°39'1512.7
2016-Jun-23 17:24N 37°13' E 003°29'1011.5
2016-Jun-23 16:33N 37°06' E 003°21'1311.3
2016-Jun-23 15:22N 36°55' E 003°11'911.6
2016-Jun-23 14:33N 36°46' E 003°06'1 0.6
2016-Jun-23 12:20N 36°46' E 003°04'0 0.0
2016-Jun-23 11:32N 36°46' E 003°04'0 0.0
2016-Jun-23 10:32N 36°46' E 003°04'0 0.0
2016-Jun-23 09:08N 36°46' E 003°04'0 0.0
2016-Jun-23 08:32N 36°46' E 003°04'0 0.0
2016-Jun-23 07:32N 36°46' E 003°04'0 0.0
2016-Jun-23 05:26N 36°46' E 003°04'0 0.0
2016-Jun-23 04:29N 36°46' E 003°04'0 0.0
2016-Jun-23 03:32N 36°46' E 003°04'0 0.0
2016-Jun-23 02:29N 36°46' E 003°04'0 0.0
2016-Jun-23 01:29N 36°46' E 003°04'0 0.0
2016-Jun-23 00:32N 36°46' E 003°04'0 0.0
2016-Jun-22 22:26N 36°46' E 003°04'0 0.0
2016-Jun-22 21:32N 36°46' E 003°04'0 0.0
2016-Jun-22 20:32N 36°46' E 003°04'0 0.0
2016-Jun-22 19:29N 36°46' E 003°04'0 0.0
2016-Jun-22 18:32N 36°46' E 003°04'0 0.0
2016-Jun-22 17:14N 36°46' E 003°04'0 0.0
2016-Jun-22 16:32N 36°46' E 003°04'0 0.0
2016-Jun-22 15:32N 36°46' E 003°04'0 0.0
2016-Jun-22 14:29N 36°46' E 003°04'0 0.0
2016-Jun-22 13:32N 36°46' E 003°04'0 0.0
2016-Jun-22 12:32N 36°46' E 003°04'0 0.0
2016-Jun-22 11:29N 36°46' E 003°04'0 0.0
2016-Jun-22 10:23N 36°46' E 003°04'0 0.0
2016-Jun-22 08:32N 36°46' E 003°04'0 0.0
2016-Jun-22 06:26N 36°46' E 003°04'0 0.0
2016-Jun-22 03:32N 36°46' E 003°04'0 0.0
2016-Jun-22 02:32N 36°46' E 003°04'0 0.0
2016-Jun-22 01:32N 36°46' E 003°04'  
Track history (hours):
 
Tides and Currents Weather Stations Pressure Air Temp Water Temp Dewpoint Dewpoint Depression Visibility Wind Speed Wind Dir Waves Ship Positions

Purki

Last reported at 2016-Jul-01 17:26 UTC. Time now 2016-Jul-01 19:05 UTC.
Position N 36°46' E 003°07'.

Length 146 m; draft 8.4 m.

Type: Cargo ship. MMSI: 248495000.

Date/timePositionNaut miles runAvg speedWind from/ knotsBaromVisibWave heightAir tempDewpointWater temp
2016-Jul-01 17:26N 36°46' E 003°07'0 0.0
2016-Jul-01 13:20N 36°46' E 003°07'0 0.0
2016-Jul-01 12:32N 36°46' E 003°07'0 0.0
2016-Jul-01 11:23N 36°46' E 003°07'0 0.0
2016-Jul-01 07:08N 36°46' E 003°07'0 0.0
2016-Jul-01 06:26N 36°46' E 003°07'0 0.0
2016-Jul-01 03:32N 36°46' E 003°07'0 0.0
2016-Jul-01 02:11N 36°46' E 003°07'0 0.1
2016-Jul-01 01:32N 36°46' E 003°07'0 0.1
2016-Jul-01 00:32N 36°46' E 003°07'0 0.0
2016-Jun-30 23:33N 36°46' E 003°07'5 5.4
2016-Jun-30 22:33N 36°51' E 003°05'1010.1
2016-Jun-30 21:33N 36°59' E 002°57'9 8.6
2016-Jun-30 20:33N 37°04' E 002°48'1211.7
2016-Jun-30 19:33N 37°12' E 002°38'1211.6
2016-Jun-30 18:33N 37°20' E 002°27'1211.7
2016-Jun-30 17:33N 37°29' E 002°17'1411.8
2016-Jun-30 16:22N 37°39' E 002°04'1012.0
2016-Jun-30 15:33N 37°46' E 001°56'1211.8
2016-Jun-30 14:32N 37°55' E 001°46'1111.6
2016-Jun-30 13:33N 38°03' E 001°36'1211.7
2016-Jun-30 12:31N 38°12' E 001°25'1111.7
2016-Jun-30 11:33N 38°20' E 001°15'1111.6
2016-Jun-30 10:33N 38°28' E 001°05'1411.4
2016-Jun-30 09:18N 38°39' E 000°53'911.2
2016-Jun-30 08:32N 38°44' E 000°44'1111.5
2016-Jun-30 07:33N 38°52' E 000°34'4711.5
2016-Jun-30 03:29N 39°22' W 000°13'7 7.9
2016-Jun-30 02:33N 39°27' W 000°19'0 0.0
2016-Jun-30 01:18N 39°27' W 000°19'0 0.0
2016-Jun-30 00:33N 39°27' W 000°19'0 0.0
2016-Jun-29 23:34N 39°27' W 000°19'0 0.0
2016-Jun-29 22:33N 39°27' W 000°19'0 0.0
2016-Jun-29 21:33N 39°27' W 000°19'0 0.0
2016-Jun-29 20:33N 39°27' W 000°19'0 0.0
2016-Jun-29 19:33N 39°27' W 000°19'0 0.0
2016-Jun-29 18:33N 39°27' W 000°19'0 0.0
2016-Jun-29 17:32N 39°27' W 000°19'0 0.0
2016-Jun-29 16:33N 39°27' W 000°19'0 0.0
2016-Jun-29 15:33N 39°27' W 000°19'0 0.0
2016-Jun-29 14:34N 39°27' W 000°19'0 0.0
2016-Jun-29 13:33N 39°27' W 000°19'1 1.2
2016-Jun-29 12:33N 39°26' W 000°19'13 3.2
2016-Jun-29 08:32N 39°27' W 000°02'4 3.2
2016-Jun-29 07:25N 39°30' W 000°00'1012.0
2016-Jun-29 06:34N 39°38' E 000°08'1211.9
2016-Jun-29 05:34N 39°47' E 000°17'1211.8
2016-Jun-29 04:33N 39°57' E 000°27'1211.8
2016-Jun-29 03:33N 40°05' E 000°38'1211.8
2016-Jun-29 02:33N 40°13' E 000°49'1411.9
2016-Jun-29 01:24N 40°22' E 001°03'1012.1
2016-Jun-29 00:33N 40°29' E 001°13'1212.3
2016-Jun-28 23:33N 40°37' E 001°26'1212.5
2016-Jun-28 22:33N 40°44' E 001°38'1312.7
2016-Jun-28 21:33N 40°53' E 001°51'1312.8
2016-Jun-28 20:33N 41°02' E 002°03'1212.3
2016-Jun-28 19:33N 41°13' E 002°10'9 1.8
2016-Jun-28 14:33N 41°21' E 002°10'0 0.0
2016-Jun-28 13:33N 41°21' E 002°10'0 0.0
2016-Jun-28 11:33N 41°21' E 002°10'0 0.0
2016-Jun-28 07:33N 41°21' E 002°10'5 4.6
2016-Jun-28 06:33N 41°17' E 002°13'16 7.3
2016-Jun-28 04:21N 41°20' E 002°34'1012.1
2016-Jun-28 03:32N 41°25' E 002°45'1212.1
2016-Jun-28 02:33N 41°31' E 002°59'3612.1
2016-Jun-27 23:33N 41°48' E 003°42'2411.7
2016-Jun-27 21:32N 41°59' E 004°10'1211.6
2016-Jun-27 20:31N 42°04' E 004°24'14111.3
2016-Jun-27 08:05N 43°15' E 007°09'712.3
2016-Jun-27 07:32N 43°19' E 007°16'1312.7
2016-Jun-27 06:33N 43°27' E 007°30'4513.3
2016-Jun-27 03:10N 43°55' E 008°19'813.3
2016-Jun-27 02:33N 44°00' E 008°27'1313.0
2016-Jun-27 01:33N 44°10' E 008°40'1312.8
2016-Jun-27 00:33N 44°18' E 008°54'6 6.3
2016-Jun-26 23:33N 44°24' E 008°53'0 0.1
2016-Jun-26 22:31N 44°24' E 008°53'0 0.0
2016-Jun-26 21:28N 44°24' E 008°53'0 0.0
2016-Jun-26 20:31N 44°24' E 008°53'0 0.0
2016-Jun-26 19:31N 44°24' E 008°53'0 0.0
2016-Jun-26 18:31N 44°24' E 008°53'0 0.0
2016-Jun-26 17:31N 44°24' E 008°53'0 0.0
2016-Jun-26 16:31N 44°24' E 008°53'0 0.0
2016-Jun-26 15:31N 44°24' E 008°53'0 0.0
2016-Jun-26 14:31N 44°24' E 008°53'0 0.0
2016-Jun-26 13:31N 44°24' E 008°53'0 0.0
2016-Jun-26 12:31N 44°24' E 008°53'0 0.0
2016-Jun-26 11:31N 44°24' E 008°53'0 0.0
2016-Jun-26 10:31N 44°24' E 008°53'0 0.0
2016-Jun-26 09:31N 44°24' E 008°53'4 4.3
2016-Jun-26 08:34N 44°22' E 008°58'4 4.5
2016-Jun-26 07:33N 44°18' E 009°02'4 3.7
2016-Jun-26 06:33N 44°20' E 008°57'1 0.7
2016-Jun-26 05:34N 44°20' E 008°58'0 0.4
2016-Jun-26 04:34N 44°20' E 008°57'0 0.4
2016-Jun-26 03:32N 44°19' E 008°57'0 0.5
2016-Jun-26 02:33N 44°19' E 008°57'1 0.6
2016-Jun-26 01:33N 44°18' E 008°57'1 0.6
2016-Jun-26 00:33N 44°18' E 008°58'1 0.9
2016-Jun-25 23:33N 44°17' E 008°59'1010.4
2016-Jun-25 22:33N 44°09' E 009°06'1312.9
2016-Jun-25 21:33N 43°57' E 009°14'1212.3
2016-Jun-25 20:33N 43°49' E 009°26'1212.3
2016-Jun-25 19:33N 43°40' E 009°39'1212.2
2016-Jun-25 18:33N 43°33' E 009°52'1111.5
2016-Jun-25 17:33N 43°30' E 010°08'9 8.6
2016-Jun-25 16:33N 43°34' E 010°18'0 0.0
2016-Jun-25 15:34N 43°34' E 010°18'0 0.0
2016-Jun-25 14:33N 43°34' E 010°18'0 0.0
2016-Jun-25 13:33N 43°34' E 010°18'0 0.0
2016-Jun-25 12:33N 43°34' E 010°18'0 0.0
2016-Jun-25 11:30N 43°34' E 010°18'0 0.0
2016-Jun-25 10:33N 43°34' E 010°18'1 0.6
2016-Jun-25 09:33N 43°34' E 010°18'7 6.9
2016-Jun-25 08:34N 43°28' E 010°12'1 1.3
2016-Jun-25 07:33N 43°27' E 010°11'6 6.5
2016-Jun-25 06:34N 43°23' E 010°04'1212.3
2016-Jun-25 05:33N 43°17' E 009°49'1313.0
2016-Jun-25 04:34N 43°13' E 009°32'1313.0
2016-Jun-25 03:34N 43°10' E 009°15'1413.6
2016-Jun-25 02:34N 43°00' E 009°02'1413.7
2016-Jun-25 01:34N 42°51' E 008°48'1413.8
2016-Jun-25 00:33N 42°41' E 008°35'1413.8
2016-Jun-24 23:31N 42°30' E 008°23'1513.4
2016-Jun-24 22:24N 42°18' E 008°11'1313.2
2016-Jun-24 21:24N 42°07' E 008°00'1212.9
2016-Jun-24 20:29N 41°58' E 007°51'1212.8
2016-Jun-24 19:33N 41°48' E 007°42'1312.8
2016-Jun-24 18:32N 41°37' E 007°32'1312.7
2016-Jun-24 17:32N 41°27' E 007°22'1212.6
2016-Jun-24 16:34N 41°16' E 007°13'1413.0
2016-Jun-24 15:29N 41°05' E 007°03'1613.0
2016-Jun-24 14:17N 40°52' E 006°51'2513.2
2016-Jun-24 12:24N 40°32' E 006°32'2513.1
2016-Jun-24 10:28N 40°12' E 006°12'1613.0
2016-Jun-24 09:15N 39°59' E 005°60'912.6
2016-Jun-24 08:33N 39°52' E 005°53'1312.8
2016-Jun-24 07:31N 39°41' E 005°44'7713.0
2016-Jun-24 01:33N 38°38' E 004°46'1313.0
2016-Jun-24 00:34N 38°28' E 004°35'1313.3
2016-Jun-23 23:33N 38°17' E 004°25'5112.7
2016-Jun-23 19:33N 37°36' E 003°48'1312.6
2016-Jun-23 18:33N 37°25' E 003°39'1512.7
2016-Jun-23 17:24N 37°13' E 003°29'1011.5
2016-Jun-23 16:33N 37°06' E 003°21'1311.3
2016-Jun-23 15:22N 36°55' E 003°11'911.6
2016-Jun-23 14:33N 36°46' E 003°06'1 0.6
2016-Jun-23 12:20N 36°46' E 003°04'0 0.0
2016-Jun-23 11:32N 36°46' E 003°04'0 0.0
2016-Jun-23 10:32N 36°46' E 003°04'0 0.0
2016-Jun-23 09:08N 36°46' E 003°04'0 0.0
2016-Jun-23 08:32N 36°46' E 003°04'0 0.0
2016-Jun-23 07:32N 36°46' E 003°04'0 0.0
2016-Jun-23 05:26N 36°46' E 003°04'0 0.0
2016-Jun-23 04:29N 36°46' E 003°04'0 0.0
2016-Jun-23 03:32N 36°46' E 003°04'0 0.0
2016-Jun-23 02:29N 36°46' E 003°04'0 0.0
2016-Jun-23 01:29N 36°46' E 003°04'0 0.0
2016-Jun-23 00:32N 36°46' E 003°04'0 0.0
2016-Jun-22 22:26N 36°46' E 003°04'0 0.0
2016-Jun-22 21:32N 36°46' E 003°04'0 0.0
2016-Jun-22 20:32N 36°46' E 003°04'0 0.0
2016-Jun-22 19:29N 36°46' E 003°04'0 0.0
2016-Jun-22 18:32N 36°46' E 003°04'0 0.0
2016-Jun-22 17:14N 36°46' E 003°04'0 0.0
2016-Jun-22 16:32N 36°46' E 003°04'0 0.0
2016-Jun-22 15:32N 36°46' E 003°04'0 0.0
2016-Jun-22 14:29N 36°46' E 003°04'0 0.0
2016-Jun-22 13:32N 36°46' E 003°04'0 0.0
2016-Jun-22 12:32N 36°46' E 003°04'0 0.0
2016-Jun-22 11:29N 36°46' E 003°04'0 0.0
2016-Jun-22 10:23N 36°46' E 003°04'0 0.0
2016-Jun-22 08:32N 36°46' E 003°04'0 0.0
2016-Jun-22 06:26N 36°46' E 003°04'0 0.0
2016-Jun-22 03:32N 36°46' E 003°04'0 0.0
2016-Jun-22 02:32N 36°46' E 003°04'0 0.0
2016-Jun-22 01:32N 36°46' E 003°04'  

Dump ship's entire track history